Hourly Data Report for May 02, 2017

CLYDE RIVER A
NUNAVUT

70°29'09.000" N
68°31'01.000" W
26.50 m
2400804
71090
YCY

Download Data

Hourly Data (May 2017)
Hourly Data Report for May 2, 2017
TIME
LST
Temp Definition
°C
Dew Point Definition
°C
Rel Hum Definition
%
Precip. Amount Definition
mm

Wind Dir Definition
10's deg

Wind Spd Definition
km/h
Visibility Definition
km
Stn Press Definition
kPa
Hmdx Definition


Wind Chill Definition


Weather Definition


00:00 -9.6 -10.9 90 0.0 32 32 9.7 100.45   -19 Snow
01:00 -9.3 -10.7 90 0.0 32 34 6.4 100.40   -19 Snow
02:00 -9.0 -10.4 90 0.0 32 34 3.2 100.40   -19 Snow
03:00 -8.5 -9.9 90 0.0 31 39 2.4 100.33   -19 Snow
04:00 -8.2 -9.5 90 0.0 32 37 1.2 100.33   -18 Snow
05:00 -8.0 -9.4 90 0.0 31 41 2.0 100.26   -18 Snow
06:00 -7.8 -9.3 89 0.0 32 46 2.4 100.23   -18 Snow
07:00 -7.5 -9.0 89 0.0 32 50 1.6 100.13   -18 Snow
08:00 -7.2 -8.7 89 0.0 31 54 1.2 100.03   -18 Snow
09:00 -6.8 -8.3 89 0.0 32 52 1.6 100.00   -18 Snow
10:00 -6.6 -8.0 90 0.0 31 58 1.0 99.90   -18 Snow
11:00 -6.4 -7.9 90 0.0 31 52 1.2 99.84   -17 Snow
12:00 -6.1 -7.5 90 0.0 32 54 1.2 99.84   -17 Snow
13:00 -6.2 -7.6 90 0.0 32 41 2.4 99.91   -16 Snow
14:00 -5.9 -7.3 90 0.0 32 45 1.2 99.82   -16 Snow
15:00 -6.3 -7.7 90 0.0 32 37 1.2 99.83   -16 Snow
16:00 -6.5 -7.9 90 0.0 32 41 2.0 99.81   -16 Snow
17:00 -7.0 -8.3 90 0.0 32 39 1.0 99.83   -17 Snow
18:00 -7.2 -8.6 90 0.0 32 39 1.2 99.80   -17 Snow
19:00 -7.5 -8.9 90 0.0 32 39 4.0 99.77   -17 Snow
20:00 -7.4 -8.6 91 0.0 33 30 4.8 99.74   -16 Snow
21:00 -7.6 -8.3 95 0.0 5 11 16.1 99.70   -13 LegendNANA
22:00 -8.0 -8.4 97 0.0 16 4 0.6 99.66   -10 Freezing Fog
23:00 -8.0 -8.7 95 0.0 25 5 3.6 99.67   -11 Snow

Notes on Data Quality.

Legend

  • E = Estimated
  • M = Missing
  • NA = Not Available*
  • [empty] = Indicates an unobserved value
Date modified: